Tracking 18030 objects as of 29-March-2017
HD Live streaming from Space Station
objects crossing your sky now

COSMOS 1922

Track COSMOS 1922 now!
COSMOS 1922 is classified as:


NORAD ID: 18881
Int'l Code: 1988-013A
Perigee: 5,331.9 km
Apogee: 35,021.6 km
Inclination: 68.9 °
Period: 717.5 minutes
Semi major axis: 26547 km
RCS: 12.0457 m2 (large)
Launch date: February 26, 1988
Source: Commonwealth of Independent States (former USSR) (CIS)
Launch site: PLESETSK MISSILE AND SPACE COMPLEX (PKMTR)
Your satellite tracking list
Your tracking list is empty





NASA's NSSDC Master Catalog

Two Line Element Set (TLE):
1 18881U 88013A   17086.21169561 -.00000745 +00000-0 +00000-0 0  9996
2 18881 068.8531 235.8701 5591751 131.4798 292.2439 02.00706616212960
Source of the keplerian elements: AFSPC